Weather History for Beaumont, TX

Change the Weather History Date:

Saturday, August 3, 2013

  Actual Average Record
Temperature  
Mean Temperature 84 °F 83 °F  
Max Temperature 94 °F 93 °F 102 °F (1902)
Min Temperature 74 °F 74 °F 68 °F (1976)
Degree Days  
Heating Degree Days 0 0  
Month to date heating degree days 0 0  
Since 1 June heating degree days 0 0  
Since 1 July heating degree days 0 0  
Cooling Degree Days 19 18  
Month to date cooling degree days 58 54  
Year to date cooling degree days 1650 1660  
Since 1 June cooling degree days 1163 1094  
Growing Degree Days 33 (Base 50)    
Moisture  
Dew Point 74 °F    
Average Humidity 73    
Maximum Humidity 94    
Minimum Humidity 52    
Precipitation  
Precipitation 0.00 in 0.17 in 2.95 in (1955)
Month to date precipitation 0.00 0.50  
Year to date precipitation 34.25 34.35  
Snow  
Snow 0.00 in 0.00 in 0.00 in ()
Month to date snowfall 0.0 0.0  
Since 1 June snowfall 0.0 0.0  
Since 1 July snowfall 0.0 0.0  
Snow Depth 0.00 in    
Sea Level Pressure  
Sea Level Pressure 30.00 in    
Wind  
Wind Speed 4 mph (SSW)    
Max Wind Speed 15 mph    
Max Gust Speed 28 mph    
Visibility 7 miles    
Events Rain    
T = Trace of Precipitation, MM = Missing Value Source: NWS Daily Summary

Daily Weather History Graph

Daily Weather History Graph

Search for Another Location

Airport:

Trip Planner

Search our weather history database for the weather conditions in past years. The results will help you decide how hot, cold, wet, or windy it might be!

Date:

Astronomy

Aug. 03, 2013 Rise Set
Actual Time 6:36 AM CDT 8:07 PM CDT
Civil Twilight 6:10 AM CDT 8:33 PM CDT
Nautical Twilight 5:39 AM CDT 9:04 PM CDT
Astronomical Twilight 5:07 AM CDT 9:36 PM CDT
Moon 3:49 AM CDT (8/3) 5:48 PM CDT (8/3)
Length of Visible Light 14h 22m
Length of Day
13h 30m
Waning Crescent, 9% of the Moon is Illuminated
Aug 3
Waning Crescent
Aug 6
New
Aug 14
First Quarter
Aug 20
Full
Aug 28
Last Quarter

Hourly Weather History & Observations

Time (CDT) Temp. Heat Index Dew Point Humidity Pressure Visibility Wind Dir Wind Speed Gust Speed Precip Events Conditions
12:53 AM 78.1 °F - 75.0 °F 90% 29.99 in 10.0 mi Calm Calm - N/A   Clear
1:53 AM 78.1 °F - 75.0 °F 90% 29.99 in 9.0 mi Calm Calm - N/A   Clear
2:53 AM 78.1 °F - 75.0 °F 90% 29.98 in 10.0 mi Calm Calm - N/A   Mostly Cloudy
3:06 AM 77.0 °F - 75.2 °F 94% 29.98 in 9.0 mi Calm Calm - N/A   Scattered Clouds
3:53 AM 75.9 °F - 73.9 °F 94% 29.98 in 8.0 mi Calm Calm - N/A   Clear
4:26 AM 75.2 °F - 75.2 °F 100% 29.98 in 1.5 mi Calm Calm - 0.00 in Rain Light Rain
4:31 AM 75.2 °F - 73.4 °F 94% 29.98 in 0.8 mi Calm Calm - 0.00 in Rain Light Rain
4:37 AM 75.2 °F - 75.2 °F 100% 29.98 in 1.5 mi Calm Calm - 0.00 in   Clear
4:44 AM 75.2 °F - 75.2 °F 100% 29.98 in 3.0 mi Calm Calm - 0.00 in   Clear
4:53 AM 77.0 °F - 75.0 °F 94% 29.98 in 7.0 mi Calm Calm - 0.00 in   Clear
5:01 AM 75.2 °F - 73.4 °F 94% 29.98 in 1.5 mi Calm Calm - N/A   Clear
5:06 AM 75.2 °F - 73.4 °F 94% 29.98 in 0.8 mi Calm Calm - N/A   Clear
5:14 AM 75.2 °F - 73.4 °F 94% 29.98 in 1.5 mi Calm Calm - N/A   Clear
5:16 AM 75.2 °F - 73.4 °F 94% 29.98 in 3.0 mi Calm Calm - N/A   Clear
5:53 AM 75.9 °F - 73.9 °F 94% 29.99 in 8.0 mi Calm Calm - N/A   Clear
6:09 AM 75.2 °F - 73.4 °F 94% 29.99 in 1.5 mi Calm Calm - N/A   Clear
6:13 AM 75.2 °F - 73.4 °F 94% 29.99 in 0.8 mi Calm Calm - N/A   Clear
6:19 AM 75.2 °F - 73.4 °F 94% 29.99 in 1.5 mi Calm Calm - N/A   Clear
6:21 AM 75.2 °F - 73.4 °F 94% 29.99 in 4.0 mi Calm Calm - N/A   Clear
6:53 AM 75.0 °F - 73.0 °F 94% 30.00 in 10.0 mi Calm Calm - N/A   Clear
7:53 AM 80.1 °F 85.4 °F 75.9 °F 87% 30.01 in 10.0 mi Calm Calm - N/A   Clear
8:53 AM 84.0 °F 92.6 °F 75.9 °F 76% 30.02 in 10.0 mi WSW 4.6 mph - N/A   Clear
9:53 AM 86.0 °F 96.0 °F 75.9 °F 72% 30.03 in 10.0 mi West 5.8 mph - N/A   Scattered Clouds
10:53 AM 88.0 °F 97.5 °F 75.0 °F 65% 30.05 in 10.0 mi West 5.8 mph - N/A   Scattered Clouds
11:53 AM 88.0 °F 96.5 °F 73.9 °F 63% 30.05 in 10.0 mi WSW 5.8 mph - N/A   Mostly Cloudy
12:53 PM 91.0 °F 99.3 °F 73.0 °F 55% 30.03 in 10.0 mi SW 5.8 mph - N/A   Scattered Clouds
1:53 PM 91.9 °F 99.5 °F 72.0 °F 52% 30.01 in 10.0 mi South 3.5 mph - N/A   Mostly Cloudy
2:53 PM 91.9 °F 103.2 °F 75.0 °F 58% 30.01 in 10.0 mi South 8.1 mph - N/A   Mostly Cloudy
3:53 PM 93.9 °F 105.4 °F 75.0 °F 54% 29.99 in 10.0 mi South 8.1 mph 16.1 mph N/A   Mostly Cloudy
4:53 PM 91.0 °F 102.9 °F 75.9 °F 61% 29.99 in 10.0 mi South 10.4 mph - N/A   Scattered Clouds
5:53 PM 90.0 °F 100.2 °F 75.0 °F 61% 29.99 in 10.0 mi South 11.5 mph - N/A   Partly Cloudy
6:53 PM 88.0 °F 97.5 °F 75.0 °F 65% 29.99 in 10.0 mi South 9.2 mph - N/A   Partly Cloudy
7:53 PM 84.9 °F 93.3 °F 75.0 °F 72% 30.01 in 10.0 mi South 8.1 mph - N/A   Clear
8:53 PM 82.0 °F 88.6 °F 75.0 °F 79% 30.02 in 10.0 mi Calm Calm - N/A   Clear
9:53 PM 80.1 °F 85.1 °F 75.0 °F 85% 30.03 in 10.0 mi South 4.6 mph - N/A   Clear
10:53 PM 79.0 °F - 75.9 °F 90% 30.04 in 10.0 mi South 4.6 mph - N/A   Clear
11:53 PM 79.0 °F - 75.9 °F 90% 30.05 in 10.0 mi South 3.5 mph - N/A   Clear